Oxford, MS

9:12 PM CST on November 20, 2017 (GMT -0600)
University-Oxford

Weather History for KUOX - November, 2012

Change the Weather History Date:

Monday, November 12, 2012

  Actual Average Record
Temperature  
Mean Temperature 44 °F -  
Max Temperature 59 °F 61 °F 81 °F (1989)
Min Temperature 28 °F 37 °F 21 °F (1950)
Degree Days  
Heating Degree Days 22    
Moisture  
Dew Point 37 °F    
Average Humidity 80    
Maximum Humidity 100    
Minimum Humidity 40    
Precipitation  
Precipitation 1.18 in - - ()
Sea Level Pressure  
Sea Level Pressure 30.34 in    
Wind  
Wind Speed 7 mph (NNW)    
Max Wind Speed 17 mph    
Max Gust Speed 24 mph    
Visibility 7 miles    
Events Rain    
Averages and records for this station are not official NWS values.
T = Trace of Precipitation, MM = Missing Value Source: NWS Daily Summary

Daily Weather History Graph

Daily Weather History Graph

Search for Another Location

Airport or City:

Trip Planner

Search our weather history database for the weather conditions in past years. The results will help you decide how hot, cold, wet, or windy it might be!

Date:

Astronomy

Nov. 12, 2012 Rise Set
Actual Time 6:29 AM CST 4:55 PM CST
Civil Twilight 6:02 AM CST 5:21 PM CST
Nautical Twilight 5:32 AM CST 5:52 PM CST
Astronomical Twilight 5:02 AM CST 6:21 PM CST
Moon 4:56 AM CST (11/12) 3:59 PM CST (11/12)
Length of Visible Light 11h 19m
Length of Day
10h 26m
Waning Crescent, 2% of the Moon is Illuminated
Nov 12
Waning Crescent
Nov 13
New
Nov 20
First Quarter
Nov 28
Full
Dec 6
Last Quarter

Hourly Weather History & Observations

Time (CST) Temp. Windchill Dew Point Humidity Pressure Visibility Wind Dir Wind Speed Gust Speed Precip Events Conditions
12:15 AM 59.0 °F - 59.0 °F 100% 30.05 in 1.5 mi South 6.9 mph - 0.07 in Rain Rain
12:35 AM 59.0 °F - 59.0 °F 100% 30.07 in 1.5 mi WSW 8.1 mph - 0.29 in Rain Rain
12:55 AM 53.6 °F - 51.8 °F 94% 30.12 in 0.8 mi NNW 17.3 mph 24.2 mph 0.66 in Rain Heavy Rain
1:15 AM 50.0 °F - 50.0 °F 100% 30.13 in 1.8 mi NW 12.7 mph 20.7 mph 0.05 in Rain Rain
1:35 AM 50.0 °F - 48.2 °F 94% 30.14 in 2.0 mi NNW 10.4 mph - 0.11 in Rain Rain
1:55 AM 50.0 °F - 48.2 °F 94% 30.15 in 1.2 mi NNW 10.4 mph 19.6 mph 0.21 in Rain Rain
2:15 AM 50.0 °F - 48.2 °F 94% 30.17 in 1.5 mi NW 9.2 mph - 0.07 in Rain Heavy Rain
2:35 AM 50.0 °F - 48.2 °F 94% 30.16 in 3.0 mi North 5.8 mph - 0.15 in Rain Light Rain
2:55 AM 48.2 °F - 48.2 °F 100% 30.12 in 3.0 mi NE 4.6 mph - 0.20 in Rain Light Rain
3:15 AM 48.2 °F - 48.2 °F 100% 30.15 in 2.0 mi NNW 3.5 mph - 0.03 in Rain Rain
3:35 AM 48.2 °F - 48.2 °F 100% 30.16 in 1.8 mi NNW 4.6 mph - 0.09 in Rain Rain
3:55 AM 48.2 °F - 48.2 °F 100% 30.17 in 3.0 mi NW 3.5 mph - 0.11 in Rain Light Rain
4:15 AM 48.2 °F - 48.2 °F 100% 30.18 in 10.0 mi NNW 3.5 mph - N/A   Mostly Cloudy
4:55 AM 50.0 °F - 48.2 °F 94% 30.19 in 9.0 mi Calm Calm - N/A   Overcast
5:15 AM 50.0 °F - 48.2 °F 94% 30.20 in 8.0 mi NNW 3.5 mph - N/A   Mostly Cloudy
5:35 AM 50.0 °F - 48.2 °F 94% 30.22 in 10.0 mi WNW 4.6 mph - N/A   Overcast
5:55 AM 50.0 °F - 48.2 °F 94% 30.22 in 10.0 mi NW 5.8 mph - N/A   Overcast
6:15 AM 48.2 °F - 48.2 °F 100% 30.23 in 8.0 mi NW 4.6 mph - N/A   Overcast
6:55 AM 48.2 °F - 48.2 °F 100% 30.26 in 7.0 mi NNW 11.5 mph - N/A   Overcast
7:15 AM 48.2 °F - 46.4 °F 93% 30.28 in 5.0 mi NNW 9.2 mph - N/A   Overcast
7:35 AM 46.4 °F 41.5 °F 44.6 °F 93% 30.30 in 8.0 mi NNW 10.4 mph 17.3 mph N/A   Overcast
8:15 AM 44.6 °F 38.8 °F 41.0 °F 87% 30.33 in 7.0 mi NNW 11.5 mph - N/A   Overcast
8:35 AM 44.6 °F 38.4 °F 41.0 °F 87% 30.34 in 8.0 mi NW 12.7 mph 16.1 mph N/A   Overcast
8:55 AM 42.8 °F 38.0 °F 41.0 °F 93% 30.36 in 7.0 mi NW 8.1 mph - N/A   Overcast
9:35 AM 41.0 °F 33.5 °F 39.2 °F 93% 30.38 in 7.0 mi NNW 13.8 mph - N/A   Overcast
9:55 AM 41.0 °F 34.7 °F 39.2 °F 93% 30.39 in 6.0 mi NNW 10.4 mph 18.4 mph N/A   Overcast
10:15 AM 41.0 °F 35.2 °F 37.4 °F 87% 30.40 in 7.0 mi NNW 9.2 mph - N/A   Overcast
10:55 AM 44.6 °F 38.4 °F 37.4 °F 76% 30.41 in 7.0 mi North 12.7 mph - N/A   Mostly Cloudy
11:15 AM 44.6 °F 38.8 °F 37.4 °F 76% 30.41 in 6.0 mi NW 11.5 mph 18.4 mph N/A   Haze
11:35 AM 46.4 °F 40.7 °F 35.6 °F 66% 30.40 in 7.0 mi North 12.7 mph 19.6 mph N/A   Mostly Cloudy
11:55 AM 48.2 °F - 35.6 °F 62% 30.40 in 8.0 mi NW 12.7 mph 18.4 mph N/A   Partly Cloudy
12:15 PM 48.2 °F - 35.6 °F 62% 30.39 in 8.0 mi NNW 10.4 mph 19.6 mph N/A   Clear
12:35 PM 50.0 °F - 33.8 °F 54% 30.39 in 8.0 mi NNW 11.5 mph 16.1 mph N/A   Clear
12:55 PM 50.0 °F - 32.0 °F 50% 30.38 in 9.0 mi North 9.2 mph - N/A   Clear
1:15 PM 50.0 °F - 32.0 °F 50% 30.38 in 9.0 mi NNW 12.7 mph 16.1 mph N/A   Clear
1:35 PM 50.0 °F - 32.0 °F 50% 30.37 in 9.0 mi North 5.8 mph - N/A   Clear
1:55 PM 50.0 °F - 32.0 °F 50% 30.37 in 9.0 mi NNW 4.6 mph - N/A   Clear
2:15 PM 50.0 °F - 28.4 °F 43% 30.38 in 9.0 mi North 6.9 mph - N/A   Clear
2:35 PM 50.0 °F - 28.4 °F 43% 30.39 in 9.0 mi NNW 9.2 mph - N/A   Clear
2:55 PM 50.0 °F - 28.4 °F 43% 30.39 in 9.0 mi North 9.2 mph - N/A   Clear
3:15 PM 50.0 °F - 26.6 °F 40% 30.40 in 9.0 mi NNW 9.2 mph - N/A   Clear
3:35 PM 50.0 °F - 26.6 °F 40% 30.40 in 9.0 mi NNW 8.1 mph - N/A   Clear
3:55 PM 48.2 °F - 24.8 °F 40% 30.41 in 8.0 mi NNW 6.9 mph - N/A   Clear
4:15 PM 48.2 °F - 26.6 °F 43% 30.42 in 10.0 mi NNW 5.8 mph - N/A   Clear
4:35 PM 46.4 °F 44.3 °F 26.6 °F 46% 30.42 in 9.0 mi NNW 4.6 mph - N/A   Clear
4:55 PM 44.6 °F 42.2 °F 26.6 °F 49% 30.42 in 7.0 mi North 4.6 mph - N/A   Clear
5:15 PM 44.6 °F 43.1 °F 26.6 °F 49% 30.43 in 10.0 mi NNW 3.5 mph - N/A   Clear
5:35 PM 42.8 °F - 28.4 °F 57% 30.43 in 10.0 mi Calm Calm - N/A   Clear
5:55 PM 39.2 °F - 32.0 °F 75% 30.44 in 10.0 mi Calm Calm - N/A   Clear
6:15 PM 37.4 °F - 32.0 °F 81% 30.45 in 10.0 mi Calm Calm - N/A   Clear
6:55 PM 35.6 °F - 32.0 °F 87% 30.45 in 10.0 mi Calm Calm - N/A   Clear
7:35 PM 33.8 °F - 32.0 °F 93% 30.46 in 9.0 mi Calm Calm - N/A   Clear
7:55 PM 32.0 °F - 32.0 °F 100% 30.46 in 10.0 mi Calm Calm - N/A   Clear
8:15 PM 32.0 °F - 30.2 °F 93% 30.47 in 10.0 mi Calm Calm - N/A   Clear
8:35 PM 32.0 °F - 30.2 °F 93% 30.47 in 8.0 mi Calm Calm - N/A   Clear
8:55 PM 32.0 °F - 30.2 °F 93% 30.48 in 10.0 mi Calm Calm - N/A   Clear
9:15 PM 32.0 °F - 30.2 °F 93% 30.48 in 10.0 mi Calm Calm - N/A   Clear
9:35 PM 32.0 °F - 30.2 °F 93% 30.48 in 10.0 mi Calm Calm - N/A   Clear
9:55 PM 32.0 °F - 28.4 °F 87% 30.48 in 10.0 mi Calm Calm - N/A   Clear
10:15 PM 30.2 °F - 28.4 °F 93% 30.47 in 9.0 mi Calm Calm - N/A   Clear
10:35 PM 30.2 °F - 28.4 °F 93% 30.47 in 8.0 mi Calm Calm - N/A   Clear
10:55 PM 30.2 °F - 28.4 °F 93% 30.47 in 10.0 mi Calm Calm - N/A   Clear
11:15 PM 28.4 °F - 28.4 °F 100% 30.47 in 9.0 mi Calm Calm - N/A   Clear
11:35 PM 28.4 °F - 28.4 °F 100% 30.47 in 10.0 mi Calm Calm - N/A   Clear
11:55 PM 28.4 °F - 28.4 °F 100% 30.47 in 9.0 mi Calm Calm - N/A   Clear